Simultaneous Nadir Overpasses (SNOs) Predictions

Prediction of SNOs between METOP-A and NOAA-19 Satellite Orbit:

Table of predicted SNOs for the next 14.0 days since TLE Epoch: 1/11/2014
Index Date (METOP-A) Time (METOP-A) Lat,Lon (METOP-A) SZA (METOP-A ) Date (NOAA-19) Time (NOAA-19) Lat,Lon (NOAA-19) SZA (NOAA-19 ) Distance(km) Time Diff (sec)
1 01/16/2014 10:07:20 -74.42,-156.52 84.65 01/16/2014 10:06:13 -74.47,-159.49 84.48 88.85 67
2 01/16/2014 10:58:12 73.84, 9.37 94.82 01/16/2014 10:57:08 73.84, 9.36 94.83 0.24 64
3 01/16/2014 11:48:54 -73.81, 176.63 85.22 01/16/2014 11:48:04 -73.84, 176.63 85.18 3.65 50
4 01/16/2014 12:39:34 73.81, -16.03 94.78 01/16/2014 12:39:11 73.79, -16.03 94.76 2.98 23
5 01/16/2014 13:30:16 -73.78, 151.23 85.26 01/16/2014 13:30:07 -73.79, 151.24 85.25 0.53 9
6
